Cosmos 1570 Rocket - Orbit

View from above orbital plane
View from above orbital plane
View from above satellite
View from above satellite

Ground track
Ground track

The orbit data is extracted from the following two-line orbital elements,

1 15032U 84056B   13138.50899369  .00000160  00000-0  65992-4 0  1195
2 15032 074.0721 280.2913 0016590 098.3750 325.0831 14.34198793513170
Epoch (UTC): 18 May 2013 12:12:57
Eccentricity: 0.0016590
inclination: 74.0721°
perigee height: 766 km
apogee height: 789 km
right ascension of ascending node: 280.2913°
argument of perigee: 98.3750°
revolutions per day: 14.34198793
mean anomaly at epoch: 325.0831°
orbit number at epoch: 51317

The dashed part of the orbit path shows where the satellite is in the earth's shadow,  

Developed and maintained by Chris Peat, Heavens-Above GmbH. Please read the updated FAQ before sending e-mail. Imprint. DLR